Meadow Lake, CO

5:07 PM MDT on September 25, 2017 (GMT -0600)
Meadow Lake

Weather History for KFLY - March, 2013

Change the Weather History Date:

Saturday, March 30, 2013

  Actual Average (KCOS) Record (KCOS)
Temperature  
Mean Temperature 50 °F -  
Max Temperature 64 °F 52 °F 78 °F (2010)
Min Temperature 35 °F 26 °F -2 °F (1926)
Degree Days  
Heating Degree Days 16    
Moisture  
Dew Point 24 °F    
Average Humidity 46    
Maximum Humidity 89    
Minimum Humidity 15    
Precipitation  
Precipitation 0.00 in - - ()
Sea Level Pressure  
Sea Level Pressure 30.15 in    
Wind  
Wind Speed 10 mph (NNW)    
Max Wind Speed 22 mph    
Max Gust Speed 34 mph    
Visibility 10 miles    
Events      
Averages and records for this station are not official NWS values.
T = Trace of Precipitation, MM = Missing Value Source: NWS Daily Summary

Daily Weather History Graph

Daily Weather History Graph

Search for Another Location

Airport or City:

Trip Planner

Search our weather history database for the weather conditions in past years. The results will help you decide how hot, cold, wet, or windy it might be!

Date:

Astronomy

Mar. 30, 2013 Rise Set
Actual Time 6:45 AM MDT 7:20 PM MDT
Civil Twilight 6:18 AM MDT 7:47 PM MDT
Nautical Twilight 5:47 AM MDT 8:18 PM MDT
Astronomical Twilight 5:14 AM MDT 8:51 PM MDT
Moon 11:27 PM MDT (3/30) 8:44 AM MDT (3/30)
Length of Visible Light 13h 28m
Length of Day
12h 34m
Waning Gibbous, 86% of the Moon is Illuminated
Mar 30
Waning Gibbous
Apr 2
Last Quarter
Apr 10
New
Apr 18
First Quarter
Apr 25
Full

Hourly Weather History & Observations

Time (MDT) Temp. Windchill Dew Point Humidity Pressure Visibility Wind Dir Wind Speed Gust Speed Precip Events Conditions
12:15 AM 41.2 °F 35.5 °F 26.6 °F 56% 30.19 in 10.0 mi NW 9.2 mph - N/A   Clear
12:35 AM 40.3 °F 33.9 °F 25.9 °F 56% 30.19 in 10.0 mi NW 10.4 mph - N/A   Clear
12:55 AM 39.7 °F 34.3 °F 25.5 °F 57% 30.18 in 10.0 mi WNW 8.1 mph - N/A   Clear
1:15 AM 39.2 °F 33.0 °F 25.7 °F 58% 30.18 in 10.0 mi NW 9.2 mph - N/A   Clear
1:35 AM 40.1 °F 34.7 °F 25.9 °F 57% 30.18 in 10.0 mi NW 8.1 mph - N/A   Scattered Clouds
1:55 AM 39.2 °F 33.0 °F 25.2 °F 57% 30.18 in 10.0 mi NW 9.2 mph - N/A   Clear
2:15 AM 40.1 °F 34.1 °F 24.4 °F 54% 30.18 in 10.0 mi NW 9.2 mph - N/A   Clear
2:35 AM 38.8 °F 33.2 °F 23.9 °F 55% 30.18 in 10.0 mi NW 8.1 mph - N/A   Clear
2:55 AM 37.8 °F 30.2 °F 24.1 °F 58% 30.18 in 10.0 mi NW 11.5 mph - N/A   Scattered Clouds
3:15 AM 38.5 °F 32.7 °F 24.6 °F 58% 30.18 in 10.0 mi NW 8.1 mph - N/A   Scattered Clouds
3:35 AM 38.5 °F 31.6 °F 24.4 °F 57% 30.17 in 10.0 mi NW 10.4 mph - N/A   Scattered Clouds
3:55 AM 42.1 °F 37.7 °F 24.4 °F 50% 30.16 in 10.0 mi NW 6.9 mph - N/A   Clear
4:15 AM 40.6 °F 34.8 °F 24.6 °F 53% 30.16 in 10.0 mi NW 9.2 mph - N/A   Clear
4:35 AM 42.3 °F 35.9 °F 24.8 °F 50% 30.16 in 10.0 mi WNW 11.5 mph - N/A   Clear
4:55 AM 42.1 °F 35.7 °F 24.6 °F 50% 30.16 in 10.0 mi WNW 11.5 mph - N/A   Clear
5:15 AM 42.4 °F 35.7 °F 24.3 °F 49% 30.16 in 10.0 mi NW 12.7 mph - N/A   Clear
5:35 AM 40.5 °F 34.1 °F 23.9 °F 52% 30.16 in 10.0 mi NW 10.4 mph - N/A   Clear
5:55 AM 41.0 °F 35.2 °F 23.9 °F 51% 30.16 in 10.0 mi NW 9.2 mph - N/A   Clear
6:15 AM 39.7 °F 34.3 °F 23.5 °F 52% 30.16 in 10.0 mi NW 8.1 mph - N/A   Clear
6:35 AM 38.1 °F 31.7 °F 23.5 °F 56% 30.17 in 10.0 mi NW 9.2 mph - N/A   Clear
6:55 AM 37.6 °F 32.3 °F 23.7 °F 57% 30.18 in 10.0 mi NNW 6.9 mph - N/A   Clear
7:15 AM 41.0 °F 34.7 °F 24.3 °F 51% 30.18 in 10.0 mi NW 10.4 mph - N/A   Clear
7:35 AM 43.0 °F 38.8 °F 24.4 °F 48% 30.18 in 10.0 mi NW 6.9 mph - N/A   Clear
7:55 AM 45.5 °F 42.5 °F 25.0 °F 45% 30.18 in 10.0 mi NW 5.8 mph - N/A   Clear
8:15 AM 49.3 °F - 23.4 °F 36% 30.18 in 10.0 mi NNW 8.1 mph - N/A   Clear
8:35 AM 50.7 °F - 23.4 °F 34% 30.18 in 10.0 mi NW 9.2 mph - N/A   Clear
8:55 AM 52.7 °F - 23.0 °F 31% 30.18 in 10.0 mi WNW 9.2 mph - N/A   Clear
9:15 AM 53.8 °F - 22.5 °F 30% 30.18 in 10.0 mi WNW 11.5 mph 16.1 mph N/A   Clear
9:35 AM 54.5 °F - 20.7 °F 27% 30.18 in 10.0 mi NW 6.9 mph 18.4 mph N/A   Clear
9:55 AM 55.2 °F - 20.8 °F 26% 30.17 in 10.0 mi West 9.2 mph 17.3 mph N/A   Clear
10:15 AM 56.3 °F - 20.1 °F 24% 30.17 in 10.0 mi West 11.5 mph 17.3 mph N/A   Clear
10:35 AM 57.0 °F - 19.6 °F 23% 30.15 in 10.0 mi NW 8.1 mph 18.4 mph N/A   Clear
10:55 AM 58.5 °F - 17.4 °F 20% 30.15 in 10.0 mi NNW 6.9 mph 16.1 mph N/A   Clear
11:15 AM 60.1 °F - 16.9 °F 19% 30.15 in 10.0 mi NW 13.8 mph 20.7 mph N/A   Clear
11:35 AM 60.4 °F - 17.8 °F 19% 30.14 in 10.0 mi West 4.6 mph - N/A   Scattered Clouds
11:55 AM 61.0 °F - 16.5 °F 18% 30.13 in 10.0 mi Calm Calm - N/A   Clear
12:15 PM 63.3 °F - 15.6 °F 16% 30.12 in 10.0 mi WSW 10.4 mph 19.6 mph N/A   Scattered Clouds
12:35 PM 63.0 °F - 15.8 °F 16% 30.12 in 10.0 mi West 9.2 mph 18.4 mph N/A   Scattered Clouds
12:55 PM 61.9 °F - 13.6 °F 15% 30.11 in 10.0 mi West 6.9 mph 18.4 mph N/A   Mostly Cloudy
1:15 PM 59.9 °F - 15.4 °F 18% 30.10 in 10.0 mi NNW 4.6 mph 16.1 mph N/A   Scattered Clouds
1:35 PM 60.3 °F - 15.1 °F 17% 30.09 in 10.0 mi West 5.8 mph 16.1 mph N/A   Mostly Cloudy
1:55 PM 60.6 °F - 15.3 °F 17% 30.08 in 10.0 mi NNW 8.1 mph 18.4 mph N/A   Overcast
2:15 PM 59.2 °F - 16.2 °F 19% 30.08 in 10.0 mi SSW 13.8 mph 18.4 mph N/A   Overcast
2:35 PM 60.1 °F - 14.7 °F 17% 30.07 in 10.0 mi WNW 3.5 mph - N/A   Mostly Cloudy
2:55 PM 60.3 °F - 14.7 °F 17% 30.07 in 10.0 mi WSW 5.8 mph - N/A   Mostly Cloudy
3:15 PM 60.6 °F - 15.8 °F 17% 30.06 in 10.0 mi NNW 10.4 mph 20.7 mph N/A   Overcast
3:35 PM 63.1 °F - 14.5 °F 15% 30.06 in 10.0 mi NW 11.5 mph 20.7 mph N/A   Mostly Cloudy
3:55 PM 62.4 °F - 19.8 °F 19% 30.06 in 10.0 mi ENE 13.8 mph 19.6 mph N/A   Scattered Clouds
4:15 PM 59.5 °F - 22.1 °F 24% 30.06 in 10.0 mi NNE 11.5 mph 18.4 mph N/A   Mostly Cloudy
4:35 PM 58.1 °F - 23.0 °F 26% 30.06 in 10.0 mi NE 10.4 mph 18.4 mph N/A   Overcast
4:55 PM 57.6 °F - 23.2 °F 27% 30.07 in 10.0 mi East 6.9 mph - N/A   Mostly Cloudy
5:15 PM 56.3 °F - 24.3 °F 29% 30.07 in 10.0 mi ESE 9.2 mph 17.3 mph N/A   Overcast
5:35 PM 54.7 °F - 24.8 °F 32% 30.08 in 10.0 mi East 6.9 mph - N/A   Overcast
5:55 PM 54.5 °F - 25.2 °F 32% 30.07 in 10.0 mi ESE 8.1 mph - N/A   Overcast
6:15 PM 53.1 °F - 29.5 °F 40% 30.10 in 10.0 mi NNE 18.4 mph 26.5 mph N/A   Overcast
6:35 PM 48.6 °F - 33.1 °F 55% 30.12 in 10.0 mi NNE 21.9 mph 34.5 mph N/A   Overcast
6:55 PM 46.4 °F 38.5 °F 34.2 °F 62% 30.13 in 10.0 mi NNE 21.9 mph 31.1 mph N/A   Overcast
7:15 PM 45.5 °F 38.1 °F 33.1 °F 62% 30.15 in 10.0 mi NNE 18.4 mph 25.3 mph N/A   Overcast
7:35 PM 44.6 °F 36.9 °F 32.9 °F 64% 30.16 in 10.0 mi NE 18.4 mph 26.5 mph N/A   Overcast
7:55 PM 43.7 °F 36.0 °F 32.7 °F 65% 30.18 in 10.0 mi NNE 17.3 mph 26.5 mph N/A   Overcast
8:15 PM 42.8 °F 34.5 °F 33.1 °F 69% 30.20 in 10.0 mi NNE 18.4 mph 23.0 mph N/A   Overcast
8:35 PM 41.9 °F 32.8 °F 34.3 °F 75% 30.21 in 10.0 mi North 20.7 mph 26.5 mph N/A   Mostly Cloudy
8:55 PM 41.0 °F 32.5 °F 34.0 °F 76% 30.22 in 10.0 mi North 17.3 mph 28.8 mph N/A   Mostly Cloudy
9:15 PM 39.6 °F 30.0 °F 33.8 °F 80% 30.21 in 10.0 mi North 19.6 mph 27.6 mph N/A   Mostly Cloudy
9:35 PM 39.2 °F 30.2 °F 33.8 °F 81% 30.21 in 10.0 mi North 17.3 mph 25.3 mph N/A   Mostly Cloudy
9:55 PM 38.3 °F 29.0 °F 33.8 °F 84% 30.21 in 10.0 mi North 17.3 mph 26.5 mph N/A   Scattered Clouds
10:15 PM 37.4 °F 29.3 °F 33.8 °F 87% 30.22 in 10.0 mi North 12.7 mph 19.6 mph N/A   Clear
10:35 PM 36.7 °F 29.4 °F 33.8 °F 89% 30.21 in 10.0 mi North 10.4 mph - N/A   Clear
10:55 PM 37.6 °F 28.8 °F 33.3 °F 84% 30.21 in 10.0 mi North 15.0 mph 23.0 mph N/A   Scattered Clouds
11:15 PM 36.7 °F 27.2 °F 33.3 °F 87% 30.21 in 10.0 mi North 16.1 mph 24.2 mph N/A   Scattered Clouds
11:35 PM 36.5 °F 26.7 °F 32.5 °F 86% 30.21 in 10.0 mi North 17.3 mph 24.2 mph N/A   Clear
11:55 PM 35.8 °F 26.9 °F 32.0 °F 86% 30.21 in 10.0 mi North 13.8 mph 19.6 mph N/A   Clear